[[{"header":{"parameterUnit":"m.s-1","parameterCategory":1,"la1":30.2991,"la2":30.254,"lo1":-89.0895,"lo2":-89.0444,"dy":0.0017,"dx":0.0017,"nx":28,"ny":28,"refTime":"2025-03-17T21:00:00:Z","depth":0,"parameterNumber":2,"parameterNumberName":"U-component_of_WINDS"},"data":[0,0,0,0,0,0,0,0,0,0,0,0,0,0,0,0,0,0,0,0,0,0,0,0,0,0,0,0,0,0,0,0,0,0,0,0,0,0,0,0,0,0,0,0,0,0,0,0,0,0,0,0,0,0,0,0,0,0,0.5556,0.5556,0,0.5548,0.5548,0.5548,0.5517,0.5517,0.5516,0.5515,0.5506,0.5506,0.5507,0,0,0,0,0,0,0,0,0,0,0,0,0,0.5543,0.5544,0.5556,0.5556,0.5556,0.5548,0.5548,0.5548,0.5517,0.5517,0.5516,0.5515,0.5506,0.5506,0.5507,0,0,0,0,0,0,0,0,0,0,0,0,0,0.5543,0.5544,0.5556,0.554,0.5538,0.5548,0.5548,0.5548,0.5518,0.5517,0.5515,0.5515,0.5506,0.5506,0.5507,0.5532,0,0,0.5509,0.5509,0,0,0,0,0,0,0,0,0.5543,0.5544,0.5542,0.5541,0.5539,0.5533,0.554,0.5542,0.5518,0.5525,0.5515,0.5514,0.5516,0.5515,0.5516,0.5531,0.5531,0.5509,0.5509,0.551,0.551,0,0,0,0,0,0,0,0.5543,0.5544,0.5553,0.5542,0.554,0.5532,0.5531,0.554,0.5526,0.5525,0.5522,0.5522,0.5515,0.5516,0.5516,0.5531,0.5509,0.5509,0.551,0.551,0.5563,0.5564,0,0,0,0,0,0,0.5546,0.5544,0.5553,0.5552,0.5539,0.5533,0.5532,0.5536,0.5526,0.5524,0.5523,0.5521,0.5515,0.5515,0.5515,0.5542,0.551,0.551,0.551,0.5562,0.5563,0.5564,0,0,0,0,0,0,0.5546,0.5547,0.5553,0.5548,0.5548,0.5535,0.5539,0.5536,0.5537,0.5525,0.5522,0.5526,0.5514,0.5514,0.5527,0.5541,0.551,0.5511,0.5561,0.5562,0.5564,0.5596,0,0,0,0,0,0,0.5545,0.5547,0.5557,0.5548,0.5548,0.5566,0.554,0.5537,0.5538,0.5535,0.5528,0.5525,0.5513,0.5527,0.5528,0.5541,0.5511,0.5559,0.5561,0.5563,0.5594,0.5599,0.5603,0,0,0,0,0,0.5545,0.5567,0.5557,0.5559,0.556,0.5567,0.5567,0.5553,0.554,0.5549,0.5541,0.5526,0.554,0.5528,0.5529,0.5543,0.5558,0.5561,0.5563,0.5592,0.5598,0.5603,0,0,0,0,0,0,0.5577,0.5565,0.5555,0.5574,0.5572,0.5562,0.5573,0.556,0.5562,0.5559,0.5541,0.554,0.5555,0.555,0.5538,0.5565,0.5546,0.5549,0.5568,0.5573,0.5578,0.5578,0.5512,0,0,0,0,0,0.5587,0.5594,0.5583,0.5601,0.56,0.5587,0.5589,0.5579,0.5575,0.5574,0.5567,0.5564,0.5567,0.557,0.5573,0.5593,0.559,0.5603,0.5608,0.5612,0.5614,0.5622,0.5627,0.5572,0.5572,0.5572,0,0,0.5606,0.56,0.5606,0.5607,0.5604,0.561,0.5586,0.5595,0.5599,0.5575,0.5587,0.5581,0.5577,0.5593,0.56,0.559,0.5628,0.5615,0.5618,0.5618,0.5625,0.563,0.5635,0.5574,0.5573,0.5573,0,0,0.5645,0.5642,0.5655,0.5653,0.5648,0.5639,0.5642,0.5634,0.5629,0.5641,0.5622,0.5627,0.5634,0.5631,0.563,0.5666,0.5652,0.5667,0.5691,0.5699,0.5704,0.5707,0.5719,0.5723,0.567,0.567,0.567,0,0.5669,0.5679,0.5664,0.5673,0.5674,0.5652,0.5665,0.5663,0.566,0.566,0.5649,0.5656,0.5652,0.5666,0.5675,0.5676,0.5678,0.5668,0.5704,0.5708,0.5711,0.5722,0.5726,0.5672,0.5672,0.5671,0.5671,0,0.5709,0.5716,0.5727,0.5724,0.5726,0.5737,0.5723,0.5726,0.5716,0.5707,0.5718,0.5712,0.5712,0.5715,0.5705,0.5727,0.5721,0.5708,0.5688,0.5718,0.5728,0.5732,0.5674,0.5674,0.5673,0.5673,0,0,0.5767,0.5755,0.5759,0.5757,0.575,0.5754,0.5764,0.5764,0.5767,0.5765,0.5772,0.5778,0.5764,0.5764,0.5753,0.576,0.5787,0.5746,0.5745,0.5752,0.581,0.5819,0.5824,0.5778,0.5779,0.5779,0.581,0,0.5803,0.5819,0.5805,0.5823,0.5829,0.5808,0.5816,0.5812,0.5804,0.5807,0.5799,0.5802,0.5786,0.5785,0.5792,0.5783,0.5798,0.578,0.5783,0.5783,0.5784,0.5829,0.584,0.5869,0.5813,0.5814,0.5815,0,0.5846,0.5846,0.5865,0.5855,0.5856,0.5864,0.5862,0.5866,0.586,0.5854,0.5852,0.5839,0.5846,0.5828,0.5837,0.5825,0.5825,0.5821,0.5822,0.5821,0.58,0.5828,0.5878,0.5882,0.5821,0.582,0.582,0,0.5885,0.589,0.5901,0.5899,0.5889,0.5894,0.589,0.5883,0.5884,0.5882,0.5882,0.5881,0.5881,0.588,0.5866,0.5854,0.5877,0.5857,0.5871,0.5871,0.5876,0.5876,0.5925,0.5878,0.5878,0.5878,0.5878,0,0.5926,0.5937,0.5918,0.5925,0.5937,0.5921,0.5933,0.5926,0.5921,0.5925,0.5907,0.5912,0.5894,0.5896,0.5885,0.5894,0.5894,0.5888,0.5885,0.5889,0.589,0.5888,0.5885,0.5879,0.5879,0.5879,0.5879,0,0.5971,0.5959,0.5969,0.5958,0.5955,0.5964,0.5954,0.5959,0.595,0.5956,0.5956,0.5942,0.5944,0.593,0.5929,0.5922,0.5935,0.5929,0.5937,0.5934,0.5948,0.5946,0.5997,0.6002,0.5954,0.5954,0.5954,0,0.5997,0.6005,0.5995,0.5996,0.5993,0.5996,0.5996,0.598,0.5981,0.5974,0.598,0.598,0.5979,0.5983,0.5972,0.597,0.5963,0.5981,0.5963,0.5966,0.5962,0.5961,0.5961,0.5985,0.5985,0.5986,0.5986,0,0.6044,0.6037,0.6038,0.6036,0.6037,0.6035,0.6032,0.6034,0.6016,0.6018,0.6019,0.6019,0.6017,0.6017,0.6014,0.6008,0.5994,0.5992,0.5995,0.5999,0.6002,0.5999,0.5946,0.5991,0.5991,0.599,0.599,0.599,0.6079,0.6085,0.6078,0.6079,0.6075,0.6072,0.6076,0.6067,0.6068,0.6065,0.6056,0.6059,0.6051,0.6045,0.6041,0.6042,0.6034,0.6038,0.6039,0.604,0.6042,0.6003,0.6042,0.6042,0.6042,0.6041,0.6041,0,0.6123,0.6117,0.6119,0.6115,0.6115,0.6102,0.6098,0.6099,0.6101,0.6096,0.6095,0.6096,0.6096,0.6084,0.6082,0.6085,0.6079,0.6085,0.6084,0.6083,0.6051,0.6048,0.6091,0.6091,0.6091,0.6091,0.609,0.609,0.6146,0.6155,0.6147,0.6153,0.6147,0.615,0.6148,0.6145,0.614,0.6142,0.6141,0.6134,0.6126,0.6123,0.6121,0.6118,0.6117,0.6126,0.612,0.609,0.6085,0.6081,0.6078,0.6126,0.6126,0.6152,0.6152,0.6153]},{"header":{"parameterUnit":"m.s-1","parameterCategory":1,"la1":30.2991,"la2":30.254,"lo1":-89.0895,"lo2":-89.0444,"dy":0.0017,"dx":0.0017,"nx":28,"ny":28,"refTime":"2025-03-17T21:00:00:Z","depth":0,"parameterNumber":3,"parameterNumberName":"V-component_of_WINDS"},"data":[0,0,0,0,0,0,0,0,0,0,0,0,0,0,0,0,0,0,0,0,0,0,0,0,0,0,0,0,0,0,0,0,0,0,0,0,0,0,0,0,0,0,0,0,0,0,0,0,0,0,0,0,0,0,0,0,0,0,7.2654,7.2654,0,7.2683,7.2684,7.2684,7.2585,7.2582,7.258,7.2577,7.2603,7.2607,7.261,0,0,0,0,0,0,0,0,0,0,0,0,0,7.2509,7.2512,7.2654,7.2654,7.2655,7.2683,7.2684,7.2684,7.2586,7.2582,7.2579,7.2575,7.2602,7.2606,7.261,0,0,0,0,0,0,0,0,0,0,0,0,0,7.2559,7.2513,7.2654,7.2609,7.2606,7.2683,7.2684,7.2684,7.2587,7.2582,7.2578,7.2574,7.2601,7.2606,7.2611,7.2732,0,0,7.2627,7.2629,0,0,0,0,0,0,0,0,7.2556,7.2564,7.2615,7.2612,7.2608,7.2626,7.2642,7.27,7.2588,7.2594,7.2577,7.2572,7.2614,7.2618,7.2633,7.2733,7.2734,7.2627,7.263,7.2633,7.2634,0,0,0,0,0,0,0,7.2553,7.2562,7.2665,7.2616,7.2612,7.2587,7.2589,7.2653,7.2628,7.2593,7.2586,7.2591,7.2611,7.2628,7.2633,7.2734,7.2627,7.2632,7.2635,7.2637,7.2934,7.2939,0,0,0,0,0,0,7.2556,7.256,7.2664,7.2666,7.2571,7.2593,7.2595,7.2625,7.2627,7.2624,7.2595,7.2586,7.2622,7.2627,7.2634,7.2775,7.2632,7.2637,7.264,7.293,7.2935,7.2941,0,0,0,0,0,0,7.2553,7.2566,7.2663,7.2611,7.2622,7.26,7.2634,7.2628,7.2645,7.2629,7.2624,7.2617,7.2618,7.2626,7.2708,7.2774,7.264,7.2644,7.2924,7.2931,7.2938,7.3058,0,0,0,0,0,0,7.2549,7.2565,7.2612,7.2613,7.2625,7.2739,7.2638,7.2632,7.2654,7.2644,7.2648,7.2645,7.2615,7.2701,7.2713,7.2779,7.2648,7.2918,7.2927,7.2936,7.3048,7.3069,7.3086,0,0,0,0,0,7.2544,7.2644,7.2615,7.2628,7.2683,7.2743,7.2749,7.2715,7.266,7.2706,7.2696,7.2644,7.2766,7.271,7.2723,7.2791,7.2914,7.2925,7.2935,7.304,7.3065,7.3086,0,0,0,0,0,0,7.2649,7.2643,7.2611,7.2714,7.273,7.2726,7.2783,7.2742,7.2773,7.2762,7.2717,7.2718,7.2808,7.2808,7.2747,7.2908,7.283,7.2844,7.2905,7.2928,7.2947,7.2944,7.2653,0,0,0,0,0,7.2685,7.2735,7.2727,7.2818,7.2828,7.2805,7.2829,7.2802,7.2816,7.2822,7.2817,7.2832,7.2873,7.2901,7.2938,7.3048,7.3047,7.3102,7.3121,7.3136,7.3148,7.3206,7.323,7.2976,7.2976,7.2976,0,0,7.2758,7.2761,7.2795,7.284,7.2849,7.2901,7.2811,7.2869,7.2907,7.283,7.2907,7.2905,7.2918,7.3015,7.3057,7.3017,7.3218,7.315,7.3163,7.3166,7.322,7.3244,7.3265,7.2983,7.2982,7.2981,0,0,7.2917,7.2925,7.3002,7.3014,7.3029,7.3013,7.3032,7.3035,7.3031,7.3108,7.3051,7.3095,7.3167,7.3178,7.3194,7.336,7.3313,7.3373,7.3471,7.3528,7.3548,7.3565,7.3623,7.3645,7.3385,7.3386,7.3386,0,7.3005,7.3083,7.3047,7.311,7.3131,7.3065,7.3142,7.3155,7.3181,7.3196,7.3152,7.3241,7.3246,7.3344,7.3385,7.34,7.3419,7.3371,7.3548,7.3565,7.3581,7.3636,7.3658,7.3393,7.3392,7.3391,7.3391,0,7.319,7.3245,7.3305,7.3334,7.3362,7.3432,7.3405,7.3437,7.3408,7.3396,7.3476,7.3479,7.3515,7.3537,7.3508,7.3631,7.3606,7.3556,7.3476,7.3613,7.3664,7.3685,7.3403,7.34,7.3398,7.3396,0,0,7.3415,7.3424,7.3447,7.3459,7.3472,7.3513,7.358,7.3617,7.3645,7.3666,7.3719,7.3783,7.3737,7.3754,7.3726,7.3777,7.3907,7.372,7.372,7.3754,7.4042,7.4078,7.4103,7.3877,7.3881,7.3884,7.404,0,7.3571,7.3686,7.3656,7.3771,7.382,7.3759,7.3817,7.3831,7.3822,7.3862,7.3852,7.3897,7.3833,7.3844,7.3891,7.3881,7.3964,7.3869,7.3925,7.3927,7.3922,7.413,7.4169,7.4316,7.406,7.4063,7.4066,0,7.3768,7.3798,7.3918,7.3923,7.3943,7.3996,7.4027,7.4067,7.4081,7.4071,7.4092,7.4054,7.4118,7.404,7.4128,7.4064,7.4085,7.4084,7.4089,7.4092,7.4004,7.4137,7.4363,7.4384,7.4097,7.4094,7.4092,0,7.3918,7.3989,7.407,7.4082,7.4091,7.4129,7.4134,7.4144,7.4168,7.4196,7.4211,7.4245,7.4264,7.4291,7.4263,7.4209,7.4355,7.4274,7.4347,7.4348,7.4379,7.4378,7.4611,7.4396,7.4396,7.4395,7.4395,0,7.4095,7.417,7.4137,7.4187,7.427,7.4234,7.4316,7.4314,7.4324,7.4371,7.4321,7.4366,7.4327,7.4368,7.4347,7.4423,7.4432,7.4425,7.4418,7.4428,7.4429,7.444,7.4429,7.4401,7.44,7.4399,7.4398,0,7.4276,7.4257,7.4341,7.4343,7.4345,7.4406,7.4406,7.4452,7.444,7.4501,7.4513,7.4494,7.454,7.4516,7.4563,7.4549,7.4647,7.4626,7.4642,7.4636,7.4711,7.4704,7.4957,7.4988,7.4756,7.4758,7.476,0,7.4389,7.4446,7.4454,7.4483,7.4492,7.4539,7.4564,7.4532,7.456,7.4581,7.4623,7.4666,7.4698,7.4774,7.4764,7.48,7.478,7.4866,7.4784,7.4793,7.4779,7.4776,7.4781,7.4882,7.4885,7.4887,7.4889,0,7.4591,7.458,7.4618,7.4655,7.4687,7.4713,7.4735,7.4761,7.4729,7.4763,7.4811,7.4836,7.4885,7.4927,7.4959,7.4962,7.492,7.4915,7.4934,7.4944,7.4951,7.4947,7.4685,7.4909,7.4907,7.4905,7.4904,7.4903,7.4741,7.4788,7.4802,7.4847,7.4861,7.4883,7.4926,7.492,7.496,7.4998,7.4977,7.5032,7.5045,7.5083,7.5092,7.5134,7.5099,7.5127,7.5133,7.514,7.515,7.4946,7.514,7.5139,7.5139,7.5138,7.5138,0,7.4939,7.4946,7.4988,7.5021,7.5057,7.5016,7.5039,7.507,7.512,7.5137,7.517,7.5224,7.5265,7.5259,7.5296,7.5331,7.5313,7.5342,7.5338,7.5339,7.5179,7.5159,7.5356,7.5356,7.5356,7.5356,7.5356,7.5356,7.5047,7.5125,7.5116,7.52,7.5205,7.526,7.5277,7.5297,7.5309,7.5373,7.5407,7.5404,7.5411,7.5448,7.5484,7.5481,7.5496,7.5532,7.5522,7.5372,7.5351,7.533,7.5311,7.5536,7.5537,7.5678,7.568,7.5681]}]]